Terug naar catalogus

STARLINK-5147

ActiefCommunicatieVLEO
NORAD 53985·PAYLOAD·🇺🇸 United States

Gelanceerd Oct 5, 2022 vanaf Vandenberg Space Force Base

Loading…

Volgende Passages (komende 24 uur)

TLE

VersSource: CelesTrak SupGP

Epoch: Sep 15, 2026, 02:43 UTC

1 53985C 22125X   26258.11368056 -.00024414  00000+0 -15311-2 0  2582
2 53985  53.1571  83.3657 0001616  92.2332 346.4413 15.08845083    19

Volg STARLINK-5147 in realtime met AllMySat

Download on the App Store